GW1905 Weather Reports


time (UTC)temp
F
wind
direction
speed
knots
gust
knots
rain 1hr
in
rain 24hr
in
rain mn
in
humidity
%
barometer
mb
20260504041700 50 187 0.0 0.0 0.00 0.01 0.01 70 1018.3
20260504041156 51 187 0.0 0.0 0.00 0.01 0.01 68 1018.2
20260504040653 51 172 0.9 1.7 0.00 0.01 0.01 67 1018.2
20260504040150 49 190 0.0 0.9 0.00 0.01 0.01 72 1018.3
20260504035647 49 183 0.0 0.0 0.00 0.01 0.01 72 1018.3
20260504035144 49 183 0.0 0.0 0.00 0.01 0.01 72 1018.4
20260504034641 49 183 0.0 0.0 0.00 0.01 0.01 72 1018.5
20260504034138 50 183 0.0 0.0 0.00 0.01 0.01 71 1018.5
20260504033636 50 183 0.0 0.0 0.00 0.01 0.01 69 1018.4
20260504033133 50 183 0.0 0.0 0.00 0.01 0.01 70 1018.5
20260504032630 51 183 0.0 0.0 0.00 0.01 0.01 71 1018.3
20260504032127 52 183 0.0 0.0 0.00 0.01 0.01 68 1018.5
20260504031624 53 183 0.0 0.0 0.00 0.01 0.01 66 1018.5
20260504031120 53 183 0.0 0.0 0.00 0.01 0.01 63 1018.4
20260504030617 55 183 0.0 0.0 0.00 0.01 0.01 61 1018.3
20260504030114 55 179 0.9 0.9 0.00 0.01 0.01 59 1018.5
20260504025610 55 187 0.9 1.7 0.00 0.01 0.01 60 1018.2
20260504025107 55 204 0.9 1.7 0.00 0.01 0.01 59 1018.3
20260504024605 55 162 0.9 1.7 0.00 0.01 0.01 58 1018.1
20260504024101 55 173 0.9 0.9 0.00 0.01 0.01 58 1018.2
20260504023557 56 206 0.0 0.9 0.00 0.01 0.01 56 1018.2
20260504023054 56 195 0.0 0.9 0.00 0.01 0.01 56 1018.2
20260504022550 56 215 0.0 1.7 0.00 0.01 0.01 55 1018.1
20260504022046 56 196 0.0 0.9 0.00 0.01 0.01 55 1018.0
20260504021544 56 176 1.7 2.6 0.00 0.01 0.01 56 1017.9
20260504021041 57 182 0.9 4.3 0.00 0.01 0.01 55 1018.0
20260504020537 56 174 1.7 2.6 0.00 0.01 0.01 56 1018.0
20260504020034 55 219 0.9 1.7 0.00 0.01 0.01 59 1018.0
20260504015530 55 196 0.9 0.9 0.00 0.01 0.01 58 1018.1
20260504015026 55 184 0.0 0.9 0.00 0.01 0.01 60 1018.2
20260504014523 56 184 0.9 0.9 0.00 0.01 0.01 59 1018.2
20260504014020 56 178 0.0 0.9 0.00 0.01 0.01 58 1018.1
20260504013518 56 181 0.0 0.9 0.00 0.01 0.01 57 1018.1
20260504013014 56 169 0.0 0.0 0.00 0.01 0.01 55 1018.1
20260504012512 57 158 0.0 0.0 0.00 0.01 0.01 55 1017.9
20260504012010 57 184 0.0 0.0 0.00 0.01 0.01 55 1017.8
20260504011506 58 178 0.9 1.7 0.00 0.01 0.01 54 1017.6
20260504011002 58 196 0.0 0.9 0.00 0.01 0.01 53 1017.9
20260504010458 58 201 0.9 1.7 0.00 0.01 0.01 52 1017.8
20260504005954 58 187 0.9 1.7 0.00 0.01 0.01 51 1017.8
20260504005451 58 198 0.0 0.0 0.00 0.01 0.01 52 1017.8
20260504004949 59 186 0.0 0.9 0.00 0.01 0.01 51 1017.8
20260504004446 59 182 0.0 0.9 0.00 0.01 0.01 51 1017.7
20260504003943 59 181 0.0 0.9 0.00 0.01 0.01 50 1017.7
20260504003439 60 177 0.0 0.0 0.00 0.01 0.01 50 1017.6
20260504002936 60 169 0.9 1.7 0.00 0.01 0.01 49 1017.6
20260504002433 60 181 0.0 0.9 0.00 0.01 0.01 49 1017.5
20260504001930 61 185 0.9 1.7 0.00 0.01 0.01 48 1017.7
20260504001428 61 156 0.9 1.7 0.00 0.01 0.01 48 1017.9
20260504000924 62 243 0.0 1.7 0.00 0.01 0.01 46 1017.7
20260504000423 62 178 2.6 2.6 0.00 0.01 0.01 46 1017.9
20260503235918 62 184 0.0 2.6 0.00 0.01 0.01 45 1017.7
20260503235416 62 173 0.9 1.7 0.00 0.01 0.01 45 1017.5
20260503234914 63 188 1.7 2.6 0.00 0.01 0.01 45 1017.8
20260503234411 63 340 0.9 1.7 0.00 0.01 0.01 44 1017.8
20260503233909 63 267 0.9 1.7 0.00 0.01 0.01 43 1017.9
20260503233405 64 222 1.7 2.6 0.00 0.01 0.01 43 1018.0
20260503232901 64 143 0.9 1.7 0.00 0.01 0.01 43 1018.2
20260503232359 65 183 1.7 1.7 0.00 0.01 0.01 41 1018.0
20260503231856 65 143 0.9 1.7 0.00 0.01 0.01 41 1018.2
20260503231353 64 154 0.9 4.3 0.00 0.01 0.01 42 1018.3
20260503230849 64 168 0.9 2.6 0.00 0.01 0.01 41 1018.1
20260503230346 64 354 0.9 4.3 0.00 0.01 0.01 40 1018.6
20260503225844 65 95 0.9 0.9 0.00 0.01 0.01 41 1018.9
20260503225340 65 161 0.9 0.9 0.00 0.01 0.01 41 1019.0
20260503224836 65 160 0.0 2.6 0.00 0.01 0.01 39 1019.0
20260503224334 65 192 1.7 2.6 0.00 0.01 0.01 40 1018.9
20260503223831 64 177 1.7 5.2 0.00 0.01 0.01 39 1019.0
20260503223329 64 68 0.9 1.7 0.00 0.01 0.01 40 1019.2
20260503222824 65 179 1.7 2.6 0.00 0.01 0.01 41 1019.3
20260503222323 65 120 0.9 1.7 0.00 0.01 0.01 40 1019.1
20260503221821 65 265 1.7 2.6 0.00 0.01 0.01 41 1019.1
20260503221320 65 349 0.9 0.9 0.00 0.01 0.01 42 1019.3
20260503220815 65 239 0.0 2.6 0.00 0.01 0.01 41 1019.3
20260503220312 65 346 1.7 2.6 0.00 0.01 0.01 40 1019.5
20260503215809 64 155 0.0 2.6 0.00 0.01 0.01 40 1019.6
20260503215306 65 176 0.9 2.6 0.00 0.01 0.01 41 1019.6
20260503214804 64 184 0.9 4.3 0.00 0.01 0.01 40 1019.5
20260503214300 64 157 0.9 2.6 0.00 0.01 0.01 40 1019.7
20260503213758 64 321 0.9 2.6 0.00 0.01 0.01 39 1019.9
20260503213255 65 127 0.0 2.6 0.00 0.01 0.01 41 1019.8
20260503212752 65 151 0.0 0.9 0.00 0.01 0.01 43 1020.0
20260503212250 65 273 1.7 4.3 0.00 0.01 0.01 38 1020.0
20260503211747 65 242 0.0 4.3 0.00 0.01 0.01 38 1020.0
20260503211243 65 168 0.9 1.7 0.00 0.01 0.01 43 1020.0
20260503210738 65 323 0.9 2.6 0.00 0.01 0.01 39 1020.1
20260503210236 66 289 1.7 2.6 0.00 0.01 0.01 40 1020.5
20260503205731 66 158 0.0 5.2 0.00 0.01 0.01 43 1020.3
20260503205228 67 172 0.0 1.7 0.00 0.01 0.01 41 1020.2
20260503204724 66 264 1.7 4.3 0.00 0.01 0.01 41 1020.5
20260503204222 66 312 2.6 6.1 0.00 0.01 0.01 39 1020.5
20260503203719 66 356 0.9 1.7 0.00 0.01 0.01 40 1020.7
20260503203217 67 270 0.0 0.9 0.00 0.01 0.01 40 1020.8
20260503202714 66 198 2.6 2.6 0.00 0.01 0.01 40 1021.0
20260503202212 67 200 2.6 5.2 0.00 0.01 0.01 40 1021.0
20260503201709 67 181 0.9 2.6 0.00 0.01 0.01 43 1021.1
20260503201207 68 249 0.9 1.7 0.00 0.01 0.01 41 1021.2
20260503200703 67 180 0.9 1.7 0.00 0.01 0.01 46 1021.4
20260503200159 67 135 1.7 6.1 0.00 0.01 0.01 41 1021.5
20260503195656 66 179 1.7 2.6 0.00 0.01 0.01 42 1021.5
20260503195153 66 166 1.7 2.6 0.00 0.01 0.01 42 1021.8
20260503194650 66 176 3.5 4.3 0.00 0.01 0.01 44 1021.9
20260503194145 66 322 0.9 2.6 0.00 0.01 0.01 39 1022.0
20260503193643 66 201 1.7 4.3 0.00 0.01 0.01 42 1022.2
20260503193138 65 263 0.9 0.9 0.00 0.01 0.01 42 1022.1
20260503192634 65 168 2.6 4.3 0.00 0.01 0.01 44 1022.1
20260503192130 64 195 0.9 2.6 0.00 0.01 0.01 46 1022.1
20260503191627 65 191 2.6 5.2 0.00 0.01 0.01 44 1022.2
20260503191124 65 170 2.6 6.1 0.00 0.01 0.01 44 1022.2
20260503190621 65 212 0.0 4.3 0.00 0.01 0.01 46 1022.3
20260503190118 65 95 1.7 1.7 0.00 0.01 0.01 47 1022.3
20260503185614 65 191 2.6 4.3 0.00 0.01 0.01 44 1022.5
20260503185115 65 170 3.5 4.3 0.00 0.01 0.01 43 1022.5
20260503184610 65 206 3.5 4.3 0.00 0.01 0.01 44 1022.7
20260503184107 65 288 0.9 2.6 0.00 0.01 0.01 39 1022.7
20260503183603 64 107 0.0 5.2 0.00 0.01 0.01 44 1022.8
20260503183101 64 261 0.0 1.7 0.00 0.01 0.01 41 1022.7
20260503182559 62 328 0.9 0.9 0.00 0.01 0.01 44 1022.9
20260503182057 64 33 1.7 4.3 0.00 0.01 0.01 41 1023.0
20260503181553 62 148 1.7 2.6 0.00 0.01 0.01 46 1023.0
20260503181050 64 173 1.7 2.6 0.00 0.01 0.01 38 1023.4
20260503180547 63 139 1.7 1.7 0.00 0.01 0.01 43 1023.2
20260503180044 63 98 0.9 4.3 0.00 0.01 0.01 41 1023.2
20260503175541 63 308 1.7 6.1 0.00 0.01 0.01 44 1023.1
20260503175039 63 140 0.9 1.7 0.00 0.01 0.01 45 1023.4
20260503174536 62 182 2.6 5.2 0.00 0.01 0.01 41 1023.4
20260503174032 62 160 2.6 6.1 0.00 0.01 0.01 45 1023.4
20260503173527 61 228 0.9 6.1 0.00 0.01 0.01 40 1023.5
20260503173024 61 186 0.9 1.7 0.00 0.01 0.01 43 1023.6
20260503172521 61 171 0.0 2.6 0.00 0.01 0.01 50 1023.6
20260503172018 61 161 0.9 1.7 0.00 0.01 0.01 48 1023.7
20260503171515 60 135 1.7 2.6 0.00 0.01 0.01 52 1023.8
20260503171012 61 77 1.7 4.3 0.00 0.01 0.01 41 1024.0
20260503170508 61 173 0.0 2.6 0.00 0.01 0.01 44 1024.1
20260503150901 56 308 1.7 1.7 0.00 0.01 0.01 51 1024.8
20260503150357 57 113 0.0 1.7 0.00 0.01 0.01 55 1024.8
20260503131250 46 116 0.9 0.9 0.00 0.01 0.01 97 1024.8
20260503130748 46 96 0.9 1.7 0.00 0.01 0.01 99 1024.6
20260503130245 46 136 0.9 1.7 0.00 0.01 0.01 99 1024.4
20260503120211 39 188 0.0 0.0 0.00 0.01 0.01 99 1024.4
20260503110638 34 188 0.0 0.0 0.00 0.00 0.00 99 1023.6
20260503110136 34 188 0.0 0.0 0.00 0.00 0.00 99 1023.6
20260503081452 39 188 0.0 0.0 0.00 0.00 0.00 99 1023.2
20260503080949 39 188 0.0 0.0 0.00 0.00 0.00 99 1023.1
20260503080445 39 187 0.0 0.0 0.00 0.00 0.00 99 1022.9
20260503072922 39 187 0.0 0.0 0.00 0.00 0.00 99 1022.8
20260503072419 39 187 0.0 0.0 0.00 0.00 0.00 99 1023.0
20260503071916 39 188 0.0 0.0 0.00 0.00 0.00 99 1022.7
20260503071413 39 188 0.0 0.0 0.00 0.00 0.00 99 1022.9
20260503070909 40 187 0.0 0.0 0.00 0.00 0.00 99 1022.8
20260503070407 40 188 0.0 0.0 0.00 0.00 0.00 99 1022.7
20260503060332 41 187 0.0 0.0 0.00 0.00 0.00 99 1022.7
20260503054820 41 187 0.0 0.0 0.00 0.00 0.00 99 1022.8
20260503054316 42 187 0.0 0.0 0.00 0.00 0.00 99 1022.8
20260503053814 42 187 0.0 0.0 0.00 0.00 0.00 99 1022.9
20260503053312 42 187 0.0 0.0 0.00 0.00 0.00 99 1022.8
20260503052808 42 187 0.0 0.0 0.00 0.00 0.00 99 1022.7
20260503052306 42 187 0.0 0.0 0.00 0.00 0.00 99 1022.8
20260503051801 42 188 0.0 0.0 0.00 0.00 0.00 99 1022.7
20260503051258 43 188 0.0 0.0 0.00 0.00 0.00 99 1022.6
20260503050754 43 188 0.0 0.0 0.00 0.00 0.00 99 1022.6
20260503050250 43 188 0.0 0.0 0.00 0.00 0.00 99 1022.5
20260503045748 42 188 0.0 0.0 0.00 0.27 0.27 99 1022.6
20260503045246 42 187 0.0 0.0 0.00 0.27 0.27 99 1022.5
20260503044742 42 188 0.0 0.0 0.00 0.27 0.27 99 1022.4
20260503044239 42 188 0.0 0.0 0.00 0.27 0.27 99 1022.7
20260503043736 42 188 0.0 0.0 0.00 0.27 0.27 99 1022.5
20260503043233 42 188 0.0 0.0 0.00 0.27 0.27 99 1022.4
20260503042729 43 187 0.0 0.0 0.00 0.27 0.27 99 1022.3
20260503042226 43 187 0.0 0.0 0.00 0.27 0.27 99 1022.4